[[{"header":{"parameterUnit":"m.s-1","parameterCategory":1,"la1":30.2991,"la2":30.254,"lo1":-89.0895,"lo2":-89.0444,"dy":0.0017,"dx":0.0017,"nx":28,"ny":28,"refTime":"2023-10-24T21:00:00:Z","depth":0,"parameterNumber":2,"parameterNumberName":"U-component_of_WINDS"},"data":[0,0,0,0,0,0,0,0,0,0,0,0,0,0,0,0,0,0,0,0,0,0,0,0,0,0,0,0,0,0,0,0,0,0,0,0,0,0,0,0,0,0,0,0,0,0,0,0,0,0,0,0,0,0,0,0,0,0,-7.1399,-7.1401,0,-7.1566,-7.1567,-7.1569,-7.1588,-7.1586,-7.1585,-7.1583,-7.1748,-7.1754,-7.176,0,0,0,0,0,0,0,0,0,0,0,0,0,-7.1097,-7.1103,-7.1399,-7.1401,-7.1403,-7.1565,-7.1568,-7.157,-7.1588,-7.1586,-7.1584,-7.1582,-7.1746,-7.1753,-7.176,0,0,0,0,0,0,0,0,0,0,0,0,0,-7.1242,-7.1105,-7.1399,-7.1432,-7.1437,-7.1565,-7.1568,-7.157,-7.1589,-7.1586,-7.1584,-7.1581,-7.1744,-7.1752,-7.1761,-7.1866,0,0,-7.1788,-7.1792,0,0,0,0,0,0,0,0,-7.1234,-7.1253,-7.1425,-7.143,-7.1436,-7.1554,-7.1522,-7.1669,-7.1589,-7.1531,-7.1583,-7.158,-7.1685,-7.1699,-7.1735,-7.1873,-7.188,-7.1789,-7.1795,-7.1798,-7.1801,0,0,0,0,0,0,0,-7.1224,-7.1246,-7.1465,-7.1428,-7.1434,-7.1439,-7.1457,-7.155,-7.1619,-7.1536,-7.1538,-7.1557,-7.1687,-7.1726,-7.1739,-7.1883,-7.1789,-7.1797,-7.1802,-7.1806,-7.2121,-7.2124,0,0,0,0,0,0,-7.1208,-7.1238,-7.1459,-7.147,-7.1327,-7.1446,-7.1466,-7.1518,-7.1619,-7.1632,-7.1559,-7.1558,-7.1712,-7.1729,-7.1745,-7.1876,-7.1798,-7.1807,-7.1812,-7.2118,-7.2122,-7.2125,0,0,0,0,0,0,-7.1202,-7.1228,-7.1453,-7.1355,-7.1384,-7.1454,-7.1512,-7.1523,-7.1562,-7.1637,-7.1649,-7.1586,-7.1711,-7.1732,-7.1837,-7.1882,-7.1811,-7.1819,-7.2114,-7.2119,-7.2123,-7.2137,0,0,0,0,0,0,-7.1193,-7.1225,-7.1265,-7.1355,-7.1389,-7.1542,-7.1515,-7.1528,-7.1578,-7.1577,-7.1665,-7.1677,-7.1711,-7.1824,-7.1846,-7.1892,-7.1826,-7.2111,-7.2117,-7.2122,-7.2132,-7.2141,-7.2149,0,0,0,0,0,-7.1182,-7.1259,-7.1267,-7.1293,-7.144,-7.1544,-7.1563,-7.1602,-7.1581,-7.1622,-7.1672,-7.1674,-7.1875,-7.1834,-7.1859,-7.1909,-7.2108,-7.2115,-7.2121,-7.2129,-7.2139,-7.2148,0,0,0,0,0,0,-7.1168,-7.1271,-7.128,-7.139,-7.1459,-7.1547,-7.1599,-7.1611,-7.1685,-7.1681,-7.1725,-7.1745,-7.1848,-7.189,-7.1843,-7.2019,-7.1989,-7.2001,-7.1986,-7.1997,-7.2005,-7.199,-7.1833,0,0,0,0,0,-7.1179,-7.1255,-7.1342,-7.143,-7.1465,-7.1527,-7.1573,-7.1598,-7.167,-7.1698,-7.1755,-7.1823,-7.1903,-7.1953,-7.2029,-7.2141,-7.2161,-7.2189,-7.2197,-7.2203,-7.2211,-7.2277,-7.229,-7.2147,-7.2147,-7.2147,0,0,-7.1199,-7.1265,-7.131,-7.1429,-7.1485,-7.1564,-7.155,-7.1632,-7.1691,-7.171,-7.1812,-7.1858,-7.1938,-7.2048,-7.2099,-7.2086,-7.2257,-7.2212,-7.2216,-7.2221,-7.2285,-7.2299,-7.2311,-7.2152,-7.2151,-7.2151,0,0,-7.1276,-7.1334,-7.1415,-7.1474,-7.1561,-7.1603,-7.1624,-7.1713,-7.1744,-7.1849,-7.1866,-7.1938,-7.2072,-7.213,-7.2176,-7.2286,-7.2292,-7.2311,-7.235,-7.2414,-7.2425,-7.2435,-7.2474,-7.2487,-7.232,-7.232,-7.232,0,-7.1288,-7.1409,-7.1455,-7.1539,-7.1592,-7.1619,-7.1702,-7.1756,-7.1863,-7.1898,-7.1884,-7.2058,-7.2113,-7.2238,-7.2266,-7.2303,-7.2328,-7.2297,-7.242,-7.243,-7.2441,-7.2478,-7.2493,-7.2321,-7.2321,-7.2321,-7.2321,0,-7.1421,-7.1505,-7.1561,-7.1667,-7.1727,-7.181,-7.187,-7.1925,-7.1948,-7.1993,-7.2102,-7.2172,-7.2264,-7.2297,-7.2318,-7.2427,-7.2417,-7.2411,-7.2381,-7.2455,-7.2491,-7.2506,-7.2323,-7.2323,-7.2323,-7.2322,0,0,-7.1485,-7.1623,-7.1642,-7.1693,-7.1796,-7.1861,-7.1949,-7.2043,-7.209,-7.2165,-7.2239,-7.2357,-7.2355,-7.2408,-7.2437,-7.2494,-7.2578,-7.2482,-7.2484,-7.2496,-7.2704,-7.2705,-7.272,-7.2586,-7.2588,-7.2591,-7.2697,0,-7.1572,-7.1728,-7.1776,-7.1906,-7.1986,-7.2017,-7.2093,-7.2165,-7.2211,-7.2286,-7.2337,-7.2419,-7.241,-7.2443,-7.2501,-7.2555,-7.2619,-7.2549,-7.2653,-7.2656,-7.2628,-7.2739,-7.2739,-7.2835,-7.2711,-7.2714,-7.2715,0,-7.1692,-7.1774,-7.1913,-7.2012,-7.2047,-7.2114,-7.2207,-7.2279,-7.2363,-7.2393,-7.2457,-7.2484,-7.2578,-7.2548,-7.2678,-7.2629,-7.2677,-7.2711,-7.2716,-7.2723,-7.2686,-7.2747,-7.2867,-7.288,-7.2738,-7.2736,-7.2735,0,-7.1723,-7.1869,-7.1972,-7.2015,-7.2132,-7.2179,-7.223,-7.2313,-7.2368,-7.2451,-7.2488,-7.258,-7.2629,-7.27,-7.2751,-7.2725,-7.2878,-7.2852,-7.2905,-7.2903,-7.293,-7.2927,-7.3055,-7.2967,-7.2966,-7.2966,-7.2966,0,-7.1813,-7.1896,-7.1988,-7.2051,-7.2147,-7.2205,-7.2298,-7.2351,-7.2426,-7.25,-7.2534,-7.2603,-7.2669,-7.2747,-7.2789,-7.2892,-7.2914,-7.2941,-7.295,-7.2935,-7.2932,-7.2963,-7.2956,-7.297,-7.2969,-7.2968,-7.2968,0,-7.186,-7.1926,-7.204,-7.2145,-7.2174,-7.224,-7.233,-7.2393,-7.2445,-7.2539,-7.2565,-7.2645,-7.274,-7.2801,-7.292,-7.2949,-7.3061,-7.3069,-7.3032,-7.3036,-7.3085,-7.3078,-7.3235,-7.3258,-7.3156,-7.3157,-7.3158,0,-7.1911,-7.1977,-7.2091,-7.2145,-7.2198,-7.2283,-7.2342,-7.2404,-7.2464,-7.257,-7.2621,-7.272,-7.28,-7.2952,-7.302,-7.3113,-7.3123,-7.3172,-7.3136,-7.3121,-7.3122,-7.3116,-7.3123,-7.3175,-7.3176,-7.3177,-7.3177,0,-7.1994,-7.2025,-7.2109,-7.2208,-7.2278,-7.2357,-7.2436,-7.2479,-7.2555,-7.2621,-7.2721,-7.2784,-7.2911,-7.3008,-7.311,-7.3162,-7.3183,-7.319,-7.3207,-7.319,-7.3165,-7.3178,-7.3045,-7.3184,-7.3183,-7.3183,-7.3182,-7.3182,-7.2043,-7.2105,-7.2197,-7.2291,-7.2359,-7.2434,-7.25,-7.2563,-7.2648,-7.2757,-7.279,-7.2894,-7.2983,-7.3122,-7.3178,-7.3261,-7.3254,-7.3278,-7.3284,-7.3288,-7.3288,-7.3157,-7.328,-7.3279,-7.3279,-7.3279,-7.3279,0,-7.2126,-7.219,-7.2277,-7.2389,-7.2465,-7.2484,-7.2574,-7.2635,-7.2727,-7.281,-7.2892,-7.3009,-7.3106,-7.3186,-7.3286,-7.3338,-7.335,-7.3361,-7.3356,-7.3368,-7.3289,-7.3263,-7.335,-7.335,-7.335,-7.335,-7.335,-7.335,-7.2178,-7.2284,-7.2328,-7.2469,-7.2532,-7.2636,-7.2687,-7.2758,-7.2824,-7.2954,-7.3036,-7.3089,-7.3172,-7.328,-7.3371,-7.3392,-7.3427,-7.3436,-7.3459,-7.3382,-7.3373,-7.3366,-7.3342,-7.3444,-7.3444,-7.3531,-7.3532,-7.3533]},{"header":{"parameterUnit":"m.s-1","parameterCategory":1,"la1":30.2991,"la2":30.254,"lo1":-89.0895,"lo2":-89.0444,"dy":0.0017,"dx":0.0017,"nx":28,"ny":28,"refTime":"2023-10-24T21:00:00:Z","depth":0,"parameterNumber":3,"parameterNumberName":"V-component_of_WINDS"},"data":[0,0,0,0,0,0,0,0,0,0,0,0,0,0,0,0,0,0,0,0,0,0,0,0,0,0,0,0,0,0,0,0,0,0,0,0,0,0,0,0,0,0,0,0,0,0,0,0,0,0,0,0,0,0,0,0,0,0,2.4042,2.4043,0,2.4075,2.4075,2.4076,2.4137,2.4138,2.4139,2.4141,2.4166,2.4166,2.4165,0,0,0,0,0,0,0,0,0,0,0,0,0,2.4029,2.4029,2.4042,2.4043,2.4043,2.4075,2.4075,2.4076,2.4137,2.4138,2.414,2.4141,2.4166,2.4166,2.4165,0,0,0,0,0,0,0,0,0,0,0,0,0,2.4045,2.4029,2.4042,2.4078,2.4081,2.4075,2.4075,2.4076,2.4137,2.4138,2.414,2.4142,2.4166,2.4166,2.4165,2.4124,0,0,2.4163,2.4163,0,0,0,0,0,0,0,0,2.4044,2.4046,2.4072,2.4075,2.4079,2.4104,2.408,2.4092,2.4136,2.4115,2.4141,2.4143,2.4143,2.4145,2.4146,2.4125,2.4126,2.4163,2.4162,2.4162,2.4162,0,0,0,0,0,0,0,2.4043,2.4045,2.4055,2.4072,2.4077,2.4091,2.4095,2.4082,2.4118,2.4117,2.4122,2.4125,2.4146,2.4147,2.4147,2.4127,2.4163,2.4162,2.4162,2.4162,2.4078,2.4076,0,0,0,0,0,0,2.4038,2.4043,2.4054,2.4056,2.4066,2.4089,2.4094,2.4094,2.4119,2.4124,2.4124,2.4128,2.4147,2.4148,2.4149,2.4106,2.4162,2.4161,2.4161,2.408,2.4077,2.4075,0,0,0,0,0,0,2.4037,2.4038,2.4053,2.4051,2.4054,2.4088,2.4087,2.4094,2.4095,2.4124,2.413,2.4119,2.4149,2.415,2.4131,2.4107,2.4161,2.416,2.4082,2.4079,2.4076,2.4017,0,0,0,0,0,0,2.4037,2.4038,2.4023,2.405,2.4054,2.4036,2.4085,2.4093,2.4095,2.4101,2.4121,2.4126,2.415,2.4132,2.4131,2.4107,2.416,2.4084,2.4081,2.4077,2.4021,2.4012,2.4005,0,0,0,0,0,2.4036,2.4002,2.4022,2.4023,2.4037,2.4034,2.4036,2.4067,2.4093,2.4078,2.4097,2.4125,2.411,2.413,2.4128,2.4104,2.4086,2.4082,2.4078,2.4025,2.4014,2.4005,0,0,0,0,0,0,2.3968,2.4007,2.4029,2.4003,2.4016,2.4045,2.4027,2.4054,2.4057,2.4063,2.4099,2.4103,2.408,2.409,2.4111,2.4068,2.4102,2.4098,2.4063,2.4053,2.4045,2.4043,2.4159,0,0,0,0,0,2.3951,2.3947,2.398,2.3955,2.396,2.3993,2.3992,2.4016,2.4029,2.4034,2.4051,2.4061,2.4059,2.4056,2.4055,2.4023,2.4029,2.4006,2.3998,2.3991,2.3987,2.3974,2.3965,2.4062,2.4062,2.4062,0,0,2.3913,2.3934,2.3929,2.3942,2.3954,2.3949,2.3996,2.3988,2.3984,2.4031,2.4017,2.403,2.4043,2.4019,2.4009,2.4027,2.3962,2.3986,2.398,2.398,2.3969,2.396,2.3951,2.4059,2.406,2.406,0,0,2.3844,2.3859,2.3841,2.3854,2.3873,2.3896,2.3891,2.3917,2.3929,2.3916,2.3952,2.3947,2.3942,2.3952,2.3955,2.3894,2.3921,2.3892,2.385,2.3837,2.3829,2.3823,2.3803,2.3795,2.3888,2.3888,2.3888,0,2.3795,2.3791,2.3827,2.3819,2.3824,2.387,2.3853,2.3862,2.3879,2.3881,2.3901,2.3899,2.391,2.3891,2.3876,2.3877,2.3874,2.389,2.3828,2.3822,2.3816,2.3798,2.379,2.3884,2.3885,2.3885,2.3885,0,2.3731,2.3727,2.371,2.373,2.3733,2.3719,2.3754,2.3752,2.3776,2.3796,2.3783,2.38,2.3805,2.3802,2.3823,2.3786,2.3797,2.3822,2.3857,2.3803,2.3786,2.3779,2.388,2.3881,2.3882,2.3883,0,0,2.3617,2.3661,2.3654,2.3666,2.3692,2.3689,2.3678,2.3687,2.3686,2.3696,2.3689,2.3685,2.3711,2.3715,2.3738,2.3726,2.368,2.3753,2.3754,2.3741,2.3643,2.3625,2.3616,2.3698,2.3697,2.3695,2.3642,0,2.3555,2.3542,2.3576,2.3554,2.3552,2.3598,2.3589,2.3603,2.3622,2.3623,2.3643,2.3642,2.3673,2.3677,2.3667,2.3687,2.3661,2.3691,2.3691,2.369,2.3688,2.3607,2.3587,2.3536,2.3636,2.3635,2.3634,0,2.348,2.3492,2.347,2.3502,2.3502,2.3494,2.3506,2.3506,2.3524,2.3539,2.3547,2.3575,2.3566,2.36,2.3589,2.361,2.3611,2.3621,2.362,2.3622,2.3659,2.3608,2.352,2.3513,2.3623,2.3624,2.3625,0,2.3403,2.3412,2.3402,2.341,2.3445,2.3439,2.3453,2.3473,2.3477,2.3487,2.3491,2.3498,2.3502,2.3507,2.3537,2.3559,2.3523,2.3559,2.3536,2.3535,2.3527,2.3527,2.3439,2.3525,2.3525,2.3525,2.3525,0,2.3331,2.3316,2.3369,2.3362,2.3348,2.3388,2.3372,2.339,2.3408,2.3406,2.3444,2.344,2.348,2.348,2.3503,2.3492,2.3493,2.3505,2.3511,2.3502,2.3501,2.3505,2.3509,2.3523,2.3524,2.3524,2.3524,0,2.3242,2.3277,2.3269,2.3305,2.3314,2.3302,2.3332,2.3327,2.335,2.3347,2.3348,2.3383,2.3387,2.3417,2.3425,2.3441,2.3422,2.3434,2.3417,2.3421,2.3397,2.34,2.331,2.3301,2.339,2.339,2.3389,0,2.3195,2.3186,2.3222,2.3225,2.3239,2.3241,2.3248,2.3286,2.3291,2.3313,2.3306,2.3313,2.3321,2.3323,2.3349,2.3356,2.337,2.3338,2.3371,2.3364,2.3372,2.3373,2.3374,2.3331,2.333,2.3329,2.3328,0,2.3108,2.3126,2.3135,2.315,2.3156,2.3169,2.3184,2.3183,2.3227,2.3229,2.3235,2.3242,2.3253,2.326,2.3273,2.3286,2.3314,2.3318,2.3314,2.3305,2.3296,2.3303,2.34,2.332,2.3321,2.3321,2.3322,2.3322,2.304,2.3035,2.3062,2.307,2.3087,2.3101,2.3099,2.3124,2.313,2.3145,2.3167,2.317,2.3191,2.3212,2.3223,2.3225,2.3242,2.3234,2.3233,2.3231,2.3227,2.3295,2.3227,2.3228,2.3228,2.3228,2.3228,0,2.2957,2.2977,2.2985,2.3007,2.3014,2.3043,2.3062,2.3066,2.3069,2.3087,2.3096,2.3104,2.3111,2.3139,2.3149,2.3146,2.316,2.3148,2.3149,2.3152,2.3211,2.3215,2.3137,2.3137,2.3137,2.3137,2.3137,2.3137,2.2915,2.291,2.2932,2.2936,2.2955,2.2961,2.297,2.2983,2.2999,2.3007,2.3015,2.3034,2.3056,2.3069,2.3078,2.3086,2.3088,2.3072,2.3085,2.3139,2.3148,2.3156,2.316,2.3072,2.3072,2.3026,2.3026,2.3026]}]]